BAW371 LFBO-EGLL

Flight info

Callsign BAW371
Flight time 1h 21m
Altitude 36000
Route LACOU DCT CHALA DCT CNA DCT MANAK DCT EPAPU DCT RINSO DCT EKRAS DCT REVTU DCT BOLRO UP87 ROXOG
Aircraft A320/M-SDE3FGHIRWY/LB1

Departure

Time 2026-04-30 13:38
Airport Toulouse-Blagnac Airport (LFBO)

Arrival

Time 2026-04-30 15:00
Airport London Heathrow Airport (EGLL)
Time Latitude Longitude Altitude Speed Heading
2026-04-30 13:04 43.63272 1.36918 485 ft 0 kts 144°
2026-04-30 13:28 43.63281 1.36908 481 ft 4 kts 143°
2026-04-30 13:29 43.63325 1.36865 489 ft 4 kts 144°
2026-04-30 13:29 43.63365 1.36824 485 ft 2 kts 144°
2026-04-30 13:30 43.63384 1.36806 485 ft 0 kts 144°
2026-04-30 13:32 43.63380 1.36810 483 ft 2 kts 144°
2026-04-30 13:33 43.63333 1.36804 485 ft 6 kts 229°
2026-04-30 13:33 43.63273 1.36679 490 ft 10 kts 246°
2026-04-30 13:34 43.63252 1.36586 494 ft 10 kts 292°
2026-04-30 13:34 43.63474 1.36347 491 ft 17 kts 323°
2026-04-30 13:35 43.63576 1.36246 489 ft 19 kts 324°
2026-04-30 13:35 43.63781 1.36029 488 ft 16 kts 322°
2026-04-30 13:36 43.63805 1.35909 487 ft 0 kts 233°
2026-04-30 13:36 43.63780 1.35864 489 ft 10 kts 233°
2026-04-30 13:37 43.63727 1.35794 492 ft 11 kts 184°
2026-04-30 13:37 43.63576 1.35929 491 ft 40 kts 142°
2026-04-30 13:38 43.62315 1.37223 506 ft 164 kts 144°
2026-04-30 13:38 43.61356 1.38228 857 ft 183 kts 142°
2026-04-30 13:38 43.59229 1.40501 2106 ft 200 kts 142°
2026-04-30 13:39 43.56598 1.42858 3020 ft 247 kts 149°
2026-04-30 13:39 43.53606 1.45361 4891 ft 257 kts 157°
2026-04-30 13:40 43.52453 1.45809 5458 ft 262 kts 171°
2026-04-30 13:40 43.50622 1.45735 6378 ft 267 kts 192°
2026-04-30 13:40 43.48892 1.44771 6854 ft 271 kts 213°
2026-04-30 13:40 43.47522 1.42997 7040 ft 272 kts 233°
2026-04-30 13:41 43.46687 1.40666 7212 ft 274 kts 253°
2026-04-30 13:41 43.46491 1.38032 7687 ft 282 kts 273°
2026-04-30 13:41 43.46968 1.35419 8623 ft 285 kts 292°
2026-04-30 13:41 43.48094 1.33150 9511 ft 292 kts 314°
2026-04-30 13:42 43.49785 1.31580 10343 ft 298 kts 336°
2026-04-30 13:42 43.51830 1.30993 11063 ft 306 kts 357°
2026-04-30 13:42 43.56412 1.30965 11635 ft 348 kts 359°
2026-04-30 13:43 43.58828 1.30986 12241 ft 355 kts 359°
2026-04-30 13:43 43.61318 1.31005 12916 ft 360 kts 359°
2026-04-30 13:43 43.63846 1.31015 13610 ft 365 kts 359°
2026-04-30 13:43 43.66400 1.31017 14219 ft 370 kts 359°
2026-04-30 13:44 43.68980 1.30794 14806 ft 372 kts 347°
2026-04-30 13:44 43.71456 1.29763 15405 ft 373 kts 335°
2026-04-30 13:44 43.73798 1.28210 16017 ft 374 kts 329°
2026-04-30 13:44 43.76072 1.26427 16626 ft 377 kts 327°
2026-04-30 13:45 43.80674 1.22832 17857 ft 384 kts 329°
2026-04-30 13:45 43.83064 1.21131 18461 ft 388 kts 331°
2026-04-30 13:45 43.85508 1.19492 18976 ft 392 kts 332°
2026-04-30 13:46 43.87989 1.17888 19543 ft 395 kts 332°
2026-04-30 13:46 43.90493 1.16288 20119 ft 397 kts 332°
2026-04-30 13:46 43.93010 1.14678 20680 ft 399 kts 332°
2026-04-30 13:46 43.95538 1.13046 21203 ft 402 kts 332°
2026-04-30 13:47 43.98079 1.11385 21720 ft 405 kts 332°
2026-04-30 13:47 44.00632 1.09701 22220 ft 407 kts 331°
2026-04-30 13:47 44.03206 1.07996 22747 ft 410 kts 332°
2026-04-30 13:47 44.05798 1.06277 23168 ft 415 kts 332°
2026-04-30 13:48 44.08381 1.04563 23639 ft 418 kts 332°
2026-04-30 13:48 44.11014 1.02818 24058 ft 420 kts 332°
2026-04-30 13:48 44.13660 1.01068 24497 ft 422 kts 332°
2026-04-30 13:48 44.16324 0.99307 24928 ft 424 kts 332°
2026-04-30 13:49 44.18993 0.97542 25355 ft 426 kts 331°
2026-04-30 13:49 44.21676 0.95765 25787 ft 428 kts 331°
2026-04-30 13:49 44.24372 0.93973 26165 ft 431 kts 332°
2026-04-30 13:49 44.27089 0.92162 26523 ft 434 kts 332°
2026-04-30 13:50 44.29817 0.90342 26924 ft 436 kts 332°
2026-04-30 13:50 44.35267 0.86529 27723 ft 440 kts 329°
2026-04-30 13:50 44.37992 0.84545 28125 ft 441 kts 329°
2026-04-30 13:51 44.40716 0.82548 28521 ft 444 kts 329°
2026-04-30 13:51 44.43459 0.80544 28871 ft 448 kts 331°
2026-04-30 13:51 44.46246 0.78521 29087 ft 454 kts 332°
2026-04-30 13:51 44.49066 0.76482 29405 ft 457 kts 332°
2026-04-30 13:52 44.51906 0.74436 29794 ft 460 kts 332°
2026-04-30 13:52 44.54759 0.72383 30170 ft 462 kts 332°
2026-04-30 13:52 44.57629 0.70319 30493 ft 464 kts 331°
2026-04-30 13:52 44.60511 0.68247 30830 ft 466 kts 331°
2026-04-30 13:53 44.63396 0.66165 31207 ft 466 kts 332°
2026-04-30 13:53 44.66286 0.64072 31587 ft 467 kts 332°
2026-04-30 13:53 44.69170 0.61976 32060 ft 465 kts 331°
2026-04-30 13:53 44.71997 0.59921 32551 ft 463 kts 331°
2026-04-30 13:54 44.74854 0.57841 33067 ft 461 kts 330°
2026-04-30 13:54 44.77702 0.55764 33589 ft 458 kts 330°
2026-04-30 13:54 44.80516 0.53708 34111 ft 456 kts 330°
2026-04-30 13:54 44.83329 0.51649 34565 ft 453 kts 330°
2026-04-30 13:55 44.86122 0.49599 34985 ft 451 kts 330°
2026-04-30 13:55 44.88907 0.47555 35384 ft 450 kts 330°
2026-04-30 13:55 44.91681 0.45521 35761 ft 449 kts 330°
2026-04-30 13:55 44.94451 0.43488 36059 ft 449 kts 330°
2026-04-30 13:56 45.00001 0.39414 36137 ft 450 kts 330°
2026-04-30 13:56 45.05539 0.35336 36128 ft 452 kts 331°
2026-04-30 13:57 45.11116 0.31220 36125 ft 452 kts 331°
2026-04-30 13:57 45.16682 0.27103 36126 ft 452 kts 330°
2026-04-30 13:58 45.25038 0.20901 36119 ft 452 kts 331°
2026-04-30 13:59 45.30620 0.16748 36117 ft 453 kts 331°
2026-04-30 13:59 45.36005 0.12134 36108 ft 451 kts 319°
2026-04-30 14:00 45.40490 0.05924 36107 ft 450 kts 313°
2026-04-30 14:00 45.47059 -0.03597 36108 ft 451 kts 313°
2026-04-30 14:01 45.51464 -0.09992 36108 ft 451 kts 313°
2026-04-30 14:01 45.55831 -0.16358 36114 ft 452 kts 313°
2026-04-30 14:02 45.60222 -0.22769 36109 ft 452 kts 314°
2026-04-30 14:02 45.64625 -0.29207 36088 ft 453 kts 313°
2026-04-30 14:03 45.69427 -0.35068 36088 ft 455 kts 321°
2026-04-30 14:03 45.74419 -0.40680 36102 ft 456 kts 321°
2026-04-30 14:04 45.79415 -0.46311 36092 ft 457 kts 321°
2026-04-30 14:04 45.84376 -0.51925 36091 ft 457 kts 321°
2026-04-30 14:05 45.89372 -0.57599 36090 ft 458 kts 321°
2026-04-30 14:05 45.94362 -0.63279 36093 ft 458 kts 321°
2026-04-30 14:06 46.01857 -0.71833 36089 ft 459 kts 321°
2026-04-30 14:07 46.09367 -0.80423 36088 ft 460 kts 321°
2026-04-30 14:08 46.16841 -0.89022 36091 ft 460 kts 321°
2026-04-30 14:08 46.25284 -0.95379 36107 ft 459 kts 347°
2026-04-30 14:09 46.31541 -0.97292 36101 ft 458 kts 348°
2026-04-30 14:10 46.40910 -1.00172 36089 ft 459 kts 348°
2026-04-30 14:10 46.47121 -1.02095 36095 ft 459 kts 348°
2026-04-30 14:11 46.53379 -1.04030 36104 ft 459 kts 348°
2026-04-30 14:11 46.59640 -1.05963 36102 ft 459 kts 348°
2026-04-30 14:12 46.65896 -1.07898 36103 ft 460 kts 348°
2026-04-30 14:12 46.72112 -1.09831 36107 ft 460 kts 348°
2026-04-30 14:13 46.78407 -1.11807 36111 ft 460 kts 348°
2026-04-30 14:13 46.84629 -1.13757 36110 ft 460 kts 348°
2026-04-30 14:14 46.90897 -1.15707 36105 ft 460 kts 348°
2026-04-30 14:14 46.97161 -1.17664 36098 ft 460 kts 348°
2026-04-30 14:15 47.03432 -1.19635 36095 ft 461 kts 348°
2026-04-30 14:15 47.09673 -1.21608 36087 ft 460 kts 348°
2026-04-30 14:16 47.15938 -1.23586 36097 ft 461 kts 348°
2026-04-30 14:16 47.22212 -1.25567 36089 ft 461 kts 348°
2026-04-30 14:17 47.28482 -1.27561 36090 ft 461 kts 348°
2026-04-30 14:17 47.34753 -1.29560 36085 ft 460 kts 348°
2026-04-30 14:18 47.41015 -1.31550 36078 ft 460 kts 348°
2026-04-30 14:18 47.50401 -1.34561 36082 ft 460 kts 348°
2026-04-30 14:19 47.59772 -1.37576 36075 ft 459 kts 348°
2026-04-30 14:20 47.66025 -1.39588 36087 ft 460 kts 348°
2026-04-30 14:20 47.75474 -1.41533 36081 ft 458 kts 358°
2026-04-30 14:21 47.81845 -1.42000 36074 ft 458 kts 358°
2026-04-30 14:22 47.91397 -1.42730 36075 ft 458 kts 358°
2026-04-30 14:22 48.00964 -1.43449 36075 ft 458 kts 358°
2026-04-30 14:23 48.13676 -1.44374 36077 ft 458 kts 358°
2026-04-30 14:24 48.23239 -1.45052 36077 ft 458 kts 358°
2026-04-30 14:25 48.36004 -1.45967 36077 ft 459 kts 358°
2026-04-30 14:26 48.45551 -1.46651 36078 ft 459 kts 358°
2026-04-30 14:27 48.55133 -1.47355 36083 ft 459 kts 358°
2026-04-30 14:27 48.60485 -1.47750 36084 ft 459 kts 358°
2026-04-30 14:28 48.70022 -1.48449 36084 ft 459 kts 358°
2026-04-30 14:28 48.76406 -1.48918 36084 ft 459 kts 358°
2026-04-30 14:29 48.89168 -1.49878 36078 ft 459 kts 355°
2026-04-30 14:31 49.04848 -1.54708 36084 ft 460 kts 349°
2026-04-30 14:31 49.14248 -1.57717 36083 ft 460 kts 348°
2026-04-30 14:32 49.23632 -1.60762 36088 ft 460 kts 348°
2026-04-30 14:33 49.29855 -1.62788 36086 ft 460 kts 348°
2026-04-30 14:33 49.39258 -1.65846 36098 ft 460 kts 348°
2026-04-30 14:34 49.45517 -1.67890 36109 ft 460 kts 348°
2026-04-30 14:34 49.51769 -1.69934 36102 ft 459 kts 348°
2026-04-30 14:35 49.61217 -1.72365 36097 ft 460 kts
2026-04-30 14:36 49.67620 -1.71880 36095 ft 460 kts
2026-04-30 14:36 49.74032 -1.71350 35654 ft 462 kts
2026-04-30 14:36 49.77239 -1.71084 35152 ft 462 kts
2026-04-30 14:37 49.80406 -1.70819 34672 ft 462 kts
2026-04-30 14:37 49.83632 -1.70547 34192 ft 465 kts
2026-04-30 14:37 49.86865 -1.70274 33657 ft 466 kts
2026-04-30 14:37 49.90106 -1.69998 33113 ft 467 kts
2026-04-30 14:38 49.93349 -1.69717 32586 ft 468 kts
2026-04-30 14:38 49.96607 -1.69435 32062 ft 469 kts
2026-04-30 14:38 49.99866 -1.68938 31547 ft 470 kts 12°
2026-04-30 14:38 50.03021 -1.67695 31044 ft 468 kts 19°
2026-04-30 14:39 50.06142 -1.66167 30564 ft 470 kts 18°
2026-04-30 14:39 50.09270 -1.64645 30052 ft 470 kts 18°
2026-04-30 14:39 50.12410 -1.63125 29486 ft 472 kts 18°
2026-04-30 14:40 50.18710 -1.60091 28384 ft 475 kts 19°
2026-04-30 14:40 50.21878 -1.58561 27846 ft 477 kts 20°
2026-04-30 14:40 50.25051 -1.57012 27320 ft 479 kts 20°
2026-04-30 14:40 50.28198 -1.55468 26817 ft 481 kts 20°
2026-04-30 14:41 50.31404 -1.53891 26308 ft 483 kts 20°
2026-04-30 14:41 50.34624 -1.52308 25815 ft 485 kts 20°
2026-04-30 14:41 50.37855 -1.50718 25321 ft 487 kts 20°
2026-04-30 14:41 50.41097 -1.49127 24853 ft 489 kts 21°
2026-04-30 14:42 50.44357 -1.47531 24370 ft 492 kts 21°
2026-04-30 14:42 50.47635 -1.45929 23902 ft 494 kts 21°
2026-04-30 14:42 50.50916 -1.44319 23399 ft 496 kts 21°
2026-04-30 14:42 50.54157 -1.42509 22854 ft 492 kts 29°
2026-04-30 14:43 50.57172 -1.40006 22322 ft 488 kts 33°
2026-04-30 14:43 50.60100 -1.37502 21779 ft 467 kts 33°
2026-04-30 14:43 50.62888 -1.35123 21274 ft 445 kts 33°
2026-04-30 14:43 50.65550 -1.32838 20754 ft 427 kts 33°
2026-04-30 14:44 50.68111 -1.30630 20259 ft 413 kts 33°
2026-04-30 14:44 50.70593 -1.28484 19784 ft 404 kts 33°
2026-04-30 14:44 50.73055 -1.26346 19304 ft 401 kts 33°
2026-04-30 14:44 50.75489 -1.24229 18833 ft 398 kts 33°
2026-04-30 14:45 50.77882 -1.22053 18349 ft 395 kts 35°
2026-04-30 14:45 50.80197 -1.19755 17827 ft 391 kts 37°
2026-04-30 14:45 50.82456 -1.17396 17306 ft 387 kts 38°
2026-04-30 14:45 50.84649 -1.15055 16797 ft 383 kts 38°
2026-04-30 14:46 50.86852 -1.12706 16290 ft 380 kts 38°
2026-04-30 14:46 50.89044 -1.10396 15790 ft 377 kts 37°
2026-04-30 14:46 50.91224 -1.08116 15301 ft 374 kts 37°
2026-04-30 14:46 50.93393 -1.05859 14811 ft 371 kts 37°
2026-04-30 14:47 50.95547 -1.03624 14339 ft 368 kts 37°
2026-04-30 14:47 50.97678 -1.01418 13864 ft 365 kts 37°
2026-04-30 14:47 50.99789 -0.99203 13336 ft 360 kts 40°
2026-04-30 14:47 51.01610 -0.96558 12821 ft 352 kts 52°
2026-04-30 14:48 51.03228 -0.93660 12317 ft 349 kts 52°
2026-04-30 14:48 51.04842 -0.90780 11820 ft 347 kts 52°
2026-04-30 14:48 51.06444 -0.87933 11324 ft 345 kts 52°
2026-04-30 14:48 51.08026 -0.85131 10897 ft 333 kts 52°
2026-04-30 14:49 51.09530 -0.82471 10773 ft 313 kts 52°
2026-04-30 14:49 51.10949 -0.79959 10570 ft 299 kts 52°
2026-04-30 14:49 51.12325 -0.77506 10238 ft 296 kts 53°
2026-04-30 14:49 51.13666 -0.75097 9930 ft 294 kts 53°
2026-04-30 14:50 51.16358 -0.70246 9266 ft 290 kts 53°
2026-04-30 14:50 51.17691 -0.67846 8941 ft 289 kts 53°
2026-04-30 14:51 51.20343 -0.63077 8312 ft 286 kts 53°
2026-04-30 14:51 51.21656 -0.60710 7987 ft 284 kts 52°
2026-04-30 14:51 51.24266 -0.56006 7350 ft 282 kts 54°
2026-04-30 14:52 51.25560 -0.53677 7178 ft 279 kts 53°
2026-04-30 14:52 51.28563 -0.50236 7194 ft 268 kts 11°
2026-04-30 14:52 51.30394 -0.50551 7186 ft 268 kts 338°
2026-04-30 14:53 51.32645 -0.54956 6975 ft 261 kts 284°
2026-04-30 14:53 51.33205 -0.57715 6678 ft 260 kts 284°
2026-04-30 14:54 51.34295 -0.63202 6112 ft 256 kts 284°
2026-04-30 14:54 51.35386 -0.68673 6005 ft 259 kts 284°
2026-04-30 14:55 51.36836 -0.73951 5969 ft 262 kts 308°
2026-04-30 14:55 51.38208 -0.75858 5673 ft 262 kts 330°
2026-04-30 14:55 51.41636 -0.77691 5046 ft 258 kts 359°
2026-04-30 14:56 51.44905 -0.76214 4422 ft 240 kts 43°
2026-04-30 14:56 51.47340 -0.72918 4083 ft 215 kts 67°
2026-04-30 14:57 51.47711 -0.70654 3408 ft 221 kts 91°
2026-04-30 14:57 51.47702 -0.65393 2057 ft 231 kts 93°
2026-04-30 14:58 51.47643 -0.60884 1917 ft 182 kts 91°
2026-04-30 14:58 51.47679 -0.58872 1497 ft 177 kts 89°
2026-04-30 14:58 51.47716 -0.55227 951 ft 150 kts 91°
2026-04-30 14:59 51.47766 -0.52112 595 ft 140 kts 90°
2026-04-30 15:00 51.47757 -0.47539 86 ft 118 kts 91°
2026-04-30 15:00 51.47738 -0.46189 89 ft 11 kts 131°
2026-04-30 15:01 51.47660 -0.46094 89 ft 7 kts 144°
2026-04-30 15:01 51.47647 -0.46080 87 ft 1 kts 144°
2026-04-30 15:01 51.47587 -0.46065 86 ft 7 kts 196°
2026-04-30 15:02 51.47536 -0.46097 90 ft 9 kts 211°
2026-04-30 15:02 51.47500 -0.46168 91 ft 9 kts 217°
2026-04-30 15:03 51.47373 -0.46113 88 ft 4 kts 221°
2026-04-30 15:03 51.47347 -0.46175 88 ft 5 kts 237°
2026-04-30 15:04 51.47339 -0.46195 89 ft 0 kts 236°